GLOBALSTAR M076

Last updated on Sat Sep 05 2026 00:03:15 GMT+0000 (Coordinated Universal Time)

1 37190U 10054C 26246.97136980 -.00000110 00000+0 -33125-4 0 9994 2 37190 52.0016 228.3046 0000171 135.7802 258.0805 12.62263452732829
UTC large
Height (km)
Speed (km/s)
/
Latitude / Longitude
Inclination (degrees)
Orbital Period (minutes)
Azimuth
Elevation
Range (km)
Doppler Factor

Next 0 passes for location: London (51.5072 / 0.1276)

No passes found over London.
GLOBALSTAR M076